Location: Maiden
(35.5760°N, 81.2120°W)
Time: 02:49:06
(UTC-04:00)

Cosmos 2366 rocket - Pass Details

Date: 02 August 2020
Orbit: 954 x 998 km, 82.9° (Epoch: 11 August)

Event Time Altitude Azimuth Distance (km) Brightness Sun altitude
Rises 21:54:50 0° 190° (S) 3,688 6.8 -16.3°
Reaches altitude 10° 21:57:21 10° 192° (SSW) 2,737 6.1 -16.8°
Maximum altitude 22:03:37 72° 277° (W) 1,027 4.2 -17.8°
Drops below altitude 10° 22:09:51 10° 2° (N) 2,723 6.8 -18.8°
Sets 22:12:23 0° 4° (N) 3,667 7.5 -19.2°
